• In Romania
  • List of Countries
  • For 7 days
  • Water Temperature
  • Satellite Maps
  • Weather Map
  • Weather Widgets
  • user-avatar
    Login

    Hourly Weather Darwin

    Today, 26 April, Wednesday

    Time Temperature Precipitation Wind Pressure Humidity
    00:00 +28°C° 0 mm 2 mps 758 mmHg 71%
    01:00 +28°C° 0.2 mm 2 mps 757 mmHg 72%
    02:00 +27°C° 0.2 mm 2 mps 757 mmHg 72%
    03:00 +27°C° 0 mm 3 mps 757 mmHg 70%
    04:00 +27°C° 0 mm 3 mps 757 mmHg 74%
    05:00 +26°C° 0 mm 4 mps 757 mmHg 77%
    06:00 +26°C° 0 mm 4 mps 757 mmHg 80%
    07:00 +28°C° 0 mm 4 mps 757 mmHg 76%
    08:00 +29°C° 0 mm 5 mps 758 mmHg 72%
    09:00 +30°C° 0 mm 5 mps 758 mmHg 68%
    10:00 +33°C° 0 mm 5 mps 757 mmHg 62%
    11:00 +34°C° 0 mm 5 mps 757 mmHg 55%
    12:00 +36°C° 0 mm 5 mps 757 mmHg 48%
    13:00 +36°C° 0 mm 5 mps 756 mmHg 48%
    14:00 +36°C° 0 mm 4 mps 756 mmHg 47%
    15:00 +36°C° 0 mm 4 mps 755 mmHg 46%
    16:00 +35°C° 0.2 mm 4 mps 755 mmHg 54%
    17:00 +33°C° 0.2 mm 4 mps 755 mmHg 63%
    18:00 +30°C° 0.2 mm 4 mps 756 mmHg 72%
    19:00 +29°C° 0.7 mm 4 mps 756 mmHg 76%
    20:00 +29°C° 0.7 mm 5 mps 757 mmHg 80%
    21:00 +28°C° 0.7 mm 5 mps 757 mmHg 84%
    22:00 +28°C° 0.9 mm 6 mps 757 mmHg 86%
    23:00 +28°C° 0.9 mm 7 mps 757 mmHg 88%

    Tomorrow, 27 April, Thursday

    Time Temperature Precipitation Wind Pressure Humidity
    00:00 +27°C° 0.9 mm 7 mps 757 mmHg 90%
    01:00 +27°C° 0.3 mm 7 mps 757 mmHg 89%
    02:00 +27°C° 0.3 mm 8 mps 756 mmHg 89%
    03:00 +26°C° 0.3 mm 8 mps 756 mmHg 88%
    04:00 +26°C° 0.7 mm 8 mps 756 mmHg 88%
    05:00 +26°C° 0.7 mm 8 mps 756 mmHg 87%
    06:00 +24°C° 0.7 mm 9 mps 756 mmHg 87%
    07:00 +26°C° 0.4 mm 9 mps 757 mmHg 86%
    08:00 +26°C° 0.4 mm 9 mps 757 mmHg 85%
    09:00 +26°C° 0.4 mm 9 mps 758 mmHg 85%
    10:00 +26°C° 0.6 mm 9 mps 758 mmHg 85%
    11:00 +27°C° 0.6 mm 9 mps 757 mmHg 84%
    12:00 +27°C° 0.6 mm 10 mps 757 mmHg 84%
    13:00 +27°C° 0.7 mm 9 mps 757 mmHg 83%
    14:00 +27°C° 0.7 mm 9 mps 756 mmHg 81%
    15:00 +28°C° 0.7 mm 9 mps 756 mmHg 80%
    16:00 +27°C° 0.5 mm 9 mps 756 mmHg 79%
    17:00 +27°C° 0.5 mm 9 mps 756 mmHg 79%
    18:00 +26°C° 0.5 mm 8 mps 757 mmHg 78%
    19:00 +26°C° 0.6 mm 8 mps 757 mmHg 78%
    20:00 +26°C° 0.6 mm 8 mps 758 mmHg 78%
    21:00 +26°C° 0.6 mm 8 mps 758 mmHg 78%
    22:00 +24°C° 0.6 mm 9 mps 758 mmHg 80%
    23:00 +24°C° 0.6 mm 9 mps 758 mmHg 81%

    Day after tomorrow, 28 April, Friday

    Time Temperature Precipitation Wind Pressure Humidity
    00:00 +24°C° 0.6 mm 9 mps 758 mmHg 82%
    01:00 +24°C° 0.1 mm 9 mps 758 mmHg 81%
    02:00 +24°C° 0.1 mm 9 mps 757 mmHg 79%
    03:00 +24°C° 0.1 mm 8 mps 757 mmHg 78%
    04:00 +24°C° 0 mm 8 mps 757 mmHg 76%
    05:00 +24°C° 0 mm 8 mps 757 mmHg 74%
    06:00 +24°C° 0 mm 7 mps 758 mmHg 72%
    07:00 +26°C° 0.2 mm 8 mps 758 mmHg 69%
    08:00 +27°C° 0.2 mm 8 mps 759 mmHg 66%
    09:00 +28°C° 0.2 mm 8 mps 760 mmHg 62%
    10:00 +29°C° 0 mm 8 mps 759 mmHg 59%
    11:00 +31°C° 0 mm 8 mps 759 mmHg 55%
    12:00 +32°C° 0 mm 8 mps 759 mmHg 52%
    13:00 +33°C° 0 mm 7 mps 758 mmHg 52%
    14:00 +33°C° 0 mm 7 mps 758 mmHg 52%
    15:00 +33°C° 0 mm 6 mps 757 mmHg 51%
    16:00 +32°C° 0 mm 6 mps 757 mmHg 55%
    17:00 +30°C° 0 mm 5 mps 758 mmHg 59%
    18:00 +29°C° 0 mm 5 mps 758 mmHg 64%
    19:00 +28°C° 0 mm 5 mps 759 mmHg 62%
    20:00 +28°C° 0 mm 5 mps 759 mmHg 61%
    21:00 +27°C° 0 mm 6 mps 760 mmHg 59%
    22:00 +27°C° 0 mm 5 mps 760 mmHg 59%
    23:00 +27°C° 0 mm 5 mps 760 mmHg 59%

    29 April, Saturday

    Time Temperature Precipitation Wind Pressure Humidity
    00:00 +27°C° 0 mm 5 mps 760 mmHg 59%
    01:00 +26°C° 0 mm 5 mps 759 mmHg 60%
    02:00 +26°C° 0 mm 5 mps 759 mmHg 61%
    03:00 +26°C° 0 mm 5 mps 758 mmHg 63%
    04:00 +25°C° 0 mm 5 mps 758 mmHg 64%
    05:00 +25°C° 0 mm 5 mps 758 mmHg 66%
    06:00 +25°C° 0 mm 5 mps 759 mmHg 67%
    07:00 +26°C° 0 mm 5 mps 759 mmHg 64%
    08:00 +27°C° 0 mm 6 mps 760 mmHg 60%
    09:00 +28°C° 0 mm 6 mps 760 mmHg 56%
    10:00 +29°C° 0 mm 6 mps 760 mmHg 54%
    11:00 +32°C° 0 mm 5 mps 759 mmHg 51%
    12:00 +33°C° 0 mm 5 mps 759 mmHg 49%
    13:00 +34°C° 0 mm 5 mps 758 mmHg 49%
    14:00 +34°C° 0 mm 4 mps 758 mmHg 49%
    15:00 +34°C° 0 mm 4 mps 757 mmHg 49%
    16:00 +33°C° 0 mm 3 mps 758 mmHg 55%
    17:00 +31°C° 0 mm 3 mps 758 mmHg 60%
    18:00 +29°C° 0 mm 3 mps 758 mmHg 65%
    19:00 +29°C° 0 mm 3 mps 759 mmHg 66%
    20:00 +28°C° 0 mm 3 mps 759 mmHg 67%
    21:00 +28°C° 0 mm 3 mps 760 mmHg 67%
    22:00 +27°C° 0 mm 3 mps 760 mmHg 65%
    23:00 +27°C° 0 mm 3 mps 759 mmHg 63%

    30 April, Sunday

    Time Temperature Precipitation Wind Pressure Humidity
    00:00 +27°C° 0 mm 3 mps 759 mmHg 62%
    01:00 +26°C° 0 mm 3 mps 759 mmHg 60%
    02:00 +26°C° 0 mm 3 mps 758 mmHg 59%
    03:00 +25°C° 0 mm 3 mps 758 mmHg 57%
    04:00 +25°C° 0 mm 3 mps 758 mmHg 56%
    05:00 +25°C° 0 mm 3 mps 759 mmHg 56%
    06:00 +25°C° 0 mm 4 mps 759 mmHg 55%
    07:00 +26°C° 0 mm 4 mps 759 mmHg 55%
    08:00 +27°C° 0 mm 4 mps 760 mmHg 55%
    09:00 +28°C° 0 mm 4 mps 760 mmHg 55%
    10:00 +29°C° 0 mm 4 mps 760 mmHg 50%
    11:00 +32°C° 0 mm 4 mps 759 mmHg 45%
    12:00 +34°C° 0 mm 3 mps 759 mmHg 39%
    13:00 +34°C° 0 mm 3 mps 758 mmHg 40%
    14:00 +35°C° 0 mm 3 mps 758 mmHg 41%
    15:00 +35°C° 0 mm 2 mps 757 mmHg 41%
    16:00 +32°C° 0 mm 2 mps 757 mmHg 47%
    17:00 +31°C° 0 mm 2 mps 758 mmHg 54%
    18:00 +29°C° 0 mm 2 mps 758 mmHg 60%
    19:00 +29°C° 0 mm 2 mps 759 mmHg 62%
    20:00 +28°C° 0 mm 2 mps 759 mmHg 63%
    21:00 +27°C° 0 mm 2 mps 759 mmHg 65%
    22:00 +27°C° 0 mm 2 mps 759 mmHg 65%
    23:00 +27°C° 0 mm 1 mps 759 mmHg 64%

    1 May, Monday

    Time Temperature Precipitation Wind Pressure Humidity
    00:00 +26°C° 0 mm 1 mps 759 mmHg 64%
    01:00 +26°C° 0 mm 1 mps 758 mmHg 62%
    02:00 +26°C° 0 mm 1 mps 758 mmHg 59%
    03:00 +26°C° 0 mm 1 mps 758 mmHg 57%
    04:00 +26°C° 0 mm 2 mps 758 mmHg 55%
    05:00 +25°C° 0 mm 2 mps 758 mmHg 53%
    06:00 +25°C° 0 mm 2 mps 759 mmHg 52%
    07:00 +26°C° 0 mm 2 mps 759 mmHg 52%
    08:00 +28°C° 0 mm 2 mps 759 mmHg 51%
    09:00 +29°C° 0 mm 1 mps 759 mmHg 51%
    10:00 +31°C° 0 mm 1 mps 759 mmHg 49%
    11:00 +33°C° 0 mm 1 mps 758 mmHg 47%
    12:00 +34°C° 0 mm 1 mps 758 mmHg 44%
    13:00 +34°C° 0 mm 1 mps 758 mmHg 45%
    14:00 +34°C° 0 mm 1 mps 757 mmHg 46%
    15:00 +35°C° 0 mm 2 mps 757 mmHg 47%
    16:00 +32°C° 0 mm 2 mps 757 mmHg 53%
    17:00 +31°C° 0 mm 2 mps 757 mmHg 60%
    18:00 +29°C° 0 mm 2 mps 758 mmHg 66%
    19:00 +29°C° 0.1 mm 1 mps 758 mmHg 68%
    20:00 +28°C° 0.1 mm 1 mps 759 mmHg 70%
    21:00 +27°C° 0.1 mm 1 mps 759 mmHg 73%
    22:00 +27°C° 0.1 mm 1 mps 759 mmHg 72%
    23:00 +27°C° 0.1 mm 1 mps 759 mmHg 72%
    Show more